Regional Weather Roundup
Issued by NWS Sioux Falls, SD

Home | Current Version | Previous Version | Text Only | Print | Product List | Glossary On
Versions: 1 2 3 4 5 6 7 8 9 10 11 12 13 14 15 16 17 18 19 20 21 22 23 24 25 26 27 28 29 30 31 32 33 34 35 36 37 38 39 40 41 42 43 44 45 46 47 48 49 50
000
ASUS43 KFSD 212310
RWRFSD

WEATHER ROUNDUP FOR SE SOUTH DAKOTA/SW MINNESOTA/NW IOWA
NATIONAL WEATHER SERVICE SIOUX FALLS SD
500 PM CST SUN DEC 21 2014

NOTE: "FAIR" INDICATES FEW OR NO CLOUDS BELOW 12,000 FEET WITH NO
SIGNIFICANT WEATHER AND OR OBSTRUCTIONS TO VISIBILITY.


SDZ038>040-050-052>070-220000-
SOUTHEAST SOUTH DAKOTA

CITY           SKY/WX    TMP DP  RH WIND       PRES   REMARKS
CHAMBERLAIN    PTCLDY    33  30  86 E7        29.44S WCI  27
HURON          CLEAR     35  32  88 SE12      29.50R WCI  27
MADISON        CLOUDY    34  34 100 S17G25    29.55R FOG     WCI  23
MITCHELL       MOCLDY    37  34  89 S18       29.51S FOG
SIOUX FALLS    CLOUDY    37  35  92 S17G31    29.58S
WINNER         FAIR      42  31  64 S20       29.40F
YANKTON        CLOUDY    37  36  93 S21G29    29.58F
$$

MNZ071-072-080-081-089-090-097-098-220000-
SOUTHWEST MINNESOTA

CITY           SKY/WX    TMP DP  RH WIND       PRES   REMARKS
FAIRMONT       CLOUDY    37  34  87 S18G24    29.69F
JACKSON        CLOUDY    37  36  93 S17G23    29.67S FOG
LUVERNE        CLOUDY    37  36  93 S22       29.62S FOG
MARSHALL       CLOUDY    37  34  87 S18       29.61S
MONTEVIDEO     CLOUDY    36  36 100 S10       29.62F
PIPESTONE      CLOUDY    36  36 100 S18       29.58S FOG
REDWOOD FALLS  CLOUDY    36  36 100 SE13      29.65F FOG
TRACY          CLOUDY    38  37  96 S12       29.62S FOG
WINDOM         CLOUDY    37  37 100 S17G23    29.64F FOG
WORTHINGTON    CLOUDY    37 -11  12 S16G22    29.64S VSB 1
$$

IAZ001>003-012>014-020>022-031-032-NEZ013-014-SDZ071-220000-
NORTHWEST IOWA

CITY           SKY/WX    TMP DP  RH WIND       PRES   REMARKS
CHEROKEE       CLOUDY    39  39 100 S14G20    29.69S FOG
DENISON        CLOUDY    39  39 100 S18G24    29.70S FOG
ESTHERVILLE    CLOUDY    37  36  96 S24G31    29.69S FOG
LE MARS        CLOUDY    39  39 100 S18G26    29.65S FOG
ORANGE CITY    CLOUDY    39  37  93 S18G28    29.64S FOG
SHELDON        CLOUDY    39  39 100 S23G32    29.64R FOG
SIOUX CITY     CLOUDY    42  38  85 S15G24    29.66F
SPENCER        CLOUDY    39  36  89 S18       29.68F FOG
STORM LAKE     FOG       37  37 100 S17G24    29.70F VSB 1/2
$$

ABBREVIATIONS USED IN REMARKS
   TC - TEMPERATURE IN CELSIUS
  WCI - WIND CHILL INDEX
   HX - HEAT INDEX
  VSB - VISIBILITY




USA.gov is the U.S. government's official web portal to all federal, state and local government web resources and services.